KX-09

导读

KX-09是中国于北京时间2019年8月30日08:00发射的一颗卫星,是中国航天发射任务中的重要组成部分,承载着航天技术试验或特定领域遥感观测等使命。该卫星的成功发射,进一步丰富了中国在轨卫星星座规模,为相关领域科研应用、空间探索积累了宝贵实践经验,推动中国航天事业持续稳步发展。

基本信息
目录编号:
44520
目录名称:
KX-09
国际标识:
2019-058B
轨道中心:
EARTH
卫星名称:
KX-09
卫星全名:
--
卫星状态:
在轨 (已飞行2562 天)
发射日期:
2019-08-30 UTC
国别 :
中国 (CN)
星等 :
--
轨道信息
数据来源 国际轨道数据
星历时间: 2026-09-04T14:32:20+0800
7小时前
查看轨道信息
半长轴: 6954.824km
偏心率: 0.0012167
轨道倾角: 97.779°
近地点辐角 80.391°
升交点赤经 260.136°
平近点角 279.868°
近地点: 568.225km
远地点: 585.149km
周期: 96.203分钟
每日圈数: 14.96834
详细信息
使用方式:
暂无
2D轨道图
3D轨道图
轨道高度分析图
轨道倾角分析图
轨道综合分析图
查看轨道综合分析图